Location: Bodham
(52.9000°N, 1.1667°E)
Time: 13:46:39
(UTC+00:00)

Cosmos 2112 Rocket - Pass Details

Date: 21 October 2025
Orbit: 753 x 782 km, 74.0° (Epoch: 13 November)

Event Time Altitude Azimuth Distance (km) Brightness Sun altitude
Rises 19:12:40 0° 197° (SSW) 3,254 7.3 -22.7°
Reaches altitude 10° 19:15:03 10° 195° (SSW) 2,328 6.5 -23.0°
Maximum altitude 19:20:19 73° 112° (ESE) 817 3.9 -23.8°
Enters shadow 19:22:09 41° 39° (NE) 1,118 4.6 -24.1°
